Wind_Speed
13 13 12 13 11 12 10 4 2 3 5 7 7 7 8 8 9 9 9 9 9 8 6 3 1 2 4 5 6 6 7 7 9 12 15 15 13 10 9 9 10 11 12 12 12 11 10 9 9
11 11 10 10 9 10 8 4 2 3 4 5 5 5 4 5 5 7 7 9 10 9 6 4 2 3 5 6 6 6 5 6 9 11 13 14 13 10 9 9 10 11 12 11 11 11 11 10 10
9 10 9 5 14 12 6 3 3 2 2 2 2 3 2 1 2 2 5 7 8 8 7 5 4 4 6 7 7 6 4 5 8 11 13 14 13 10 8 7 10 12 11 11 11 10 11 11 11
10 9 8 11 11 5 3 3 3 3 2 2 3 3 4 3 2 2 4 6 7 7 7 7 6 6 7 8 8 7 6 6 9 13 14 14 12 10 9 10 12 12 12 11 10 9 10 10 11
10 10 10 11 3 4 4 2 1 1 2 3 5 5 6 6 7 7 7 7 8 8 9 9 9 9 10 11 11 9 9 10 12 14 15 15 13 13 12 11 12 12 12 11 10 9 8 10 10
12 11 11 7 3 6 6 4 1 3 4 4 5 7 6 7 8 10 11 11 11 12 13 13 13 13 14 15 15 14 14 14 14 15 15 15 15 15 14 13 12 12 11 11 11 10 9 9 10
12 12 10 6 6 10 11 7 6 7 5 5 7 10 6 7 8 9 11 11 12 13 14 15 16 16 16 17 17 17 16 16 15 16 16 17 17 17 17 17 15 14 13 13 12 12 11 9 9
12 10 8 6 4 14 11 7 7 6 7 6 6 8 5 7 8 10 12 12 13 14 14 15 15 15 16 17 17 17 16 16 15 16 18 18 19 20 20 20 20 19 17 17 17 15 14 12 11
14 11 9 6 5 13 7 5 5 5 8 8 9 9 8 7 7 9 11 13 12 12 13 13 14 14 16 17 18 18 18 17 17 18 19 21 22 24 24 23 23 24 22 22 21 21 19 17 14
16 15 12 13 17 15 8 7 8 8 11 16 15 14 13 11 9 10 11 12 12 12 13 13 14 16 18 20 21 21 21 21 22 23 24 25 26 26 27 26 25 24 24 24 25 26 26 23 20
19 19 19 17 17 17 13 12 13 12 11 20 19 17 15 15 15 14 14 14 15 15 16 16 18 20 21 23 24 25 25 26 28 30 30 29 29 31 31 31 29 27 26 27 27 28 28 28 26
25 24 22 20 19 19 18 18 17 18 21 26 25 24 20 20 20 21 20 20 21 23 22 22 24 25 26 24 24 26 28 29 31 31 31 32 32 32 31 31 32 32 31 31 31 29 28 30 30
30 28 27 26 25 25 25 23 22 25 30 31 27 27 27 26 26 26 27 27 27 29 30 28 28 29 29 28 27 29 31 31 32 32 31 32 34 35 35 34 34 33 31 31 31 32 30 30 31
33 33 31 29 29 30 32 29 26 28 36 36 33 31 30 30 30 31 32 33 33 34 36 34 33 34 34 34 34 34 36 36 36 34 33 33 35 38 38 38 38 37 35 33 32 32 32 32 31
37 35 32 31 32 33 35 33 30 29 39 41 38 34 33 34 35 36 37 38 39 39 41 41 39 39 40 41 41 42 42 41 41 41 39 37 38 40 41 41 42 42 40 39 36 34 33 33 34
36 36 35 31 31 35 36 33 29 35 42 45 44 38 36 38 40 41 42 42 43 44 45 46 46 46 46 47 47 48 48 48 47 46 44 43 42 43 45 46 47 49 48 46 42 38 36 36 37
28 28 27 21 29 36 37 31 33 39 44 48 48 45 43 43 44 45 46 47 47 48 49 49 50 50 50 50 51 50 49 47 46 46 46 46 46 47 48 49 52 54 54 53 50 46 43 41 42
11 11 11 11 25 37 38 30 28 39 45 48 48 49 47 45 44 44 45 46 46 46 47 48 48 48 48 48 48 48 46 44 44 45 47 48 49 49 50 52 54 56 57 58 58 54 49 47 47
16 19 20 20 23 37 40 33 26 31 41 41 40 41 41 40 40 40 41 40 40 40 41 41 41 42 42 42 42 42 43 43 43 44 45 47 49 50 51 53 54 55 57 59 60 58 54 52 53
13 14 17 18 24 32 33 30 26 26 35 40 37 38 39 39 38 39 39 40 40 40 40 41 42 43 43 44 44 43 43 43 43 45 46 47 48 49 50 51 53 54 53 54 55 57 56 56 57
16 15 19 24 29 30 30 32 27 25 35 38 37 37 37 37 37 37 39 41 42 43 43 43 44 45 45 46 46 45 44 44 45 46 47 47 49 50 51 51 51 51 51 50 51 54 54 56 57
20 21 28 30 30 31 30 34 28 25 35 37 36 34 33 34 35 36 37 38 39 40 41 42 43 43 43 45 45 45 44 45 46 47 48 49 51 52 53 52 51 50 49 49 50 51 52 51 50
26 27 29 29 28 28 23 24 22 22 30 33 33 32 29 30 33 34 35 36 37 37 38 38 38 38 39 40 41 42 43 44 45 47 48 49 49 50 52 53 52 51 50 49 48 48 48 47 42
19 18 18 17 17 18 17 18 16 22 26 31 35 36 35 34 33 33 34 34 35 36 36 37 38 38 38 39 40 42 43 44 45 46 47 48 49 49 50 53 54 54 53 51 49 48 46 43 39
14 13 12 9 9 15 17 16 16 25 29 32 35 38 39 38 37 37 37 37 36 37 37 38 39 40 41 42 45 46 47 47 47 48 49 50 50 50 50 51 53 54 54 52 49 47 45 42 38
11 10 10 12 10 12 14 17 20 28 30 29 31 34 38 40 42 42 41 40 40 40 39 39 40 41 43 45 46 48 50 49 49 50 51 50 50 49 49 48 49 48 49 49 48 45 43 41 39
12 10 11 15 14 14 13 14 21 30 33 34 36 37 38 40 42 44 44 44 44 43 42 42 42 43 44 45 46 47 48 48 48 49 49 50 50 49 48 46 45 43 42 41 40 38 36 35 37
16 16 18 20 21 20 19 17 21 31 35 39 38 38 39 39 40 41 43 43 44 44 44 44 44 44 44 44 44 45 45 46 46 46 48 49 48 45 42 39 37 35 33 32 30 29 29 31 33
19 21 21 22 23 25 25 21 19 28 32 34 34 34 34 35 36 39 41 42 43 43 43 43 43 42 43 43 42 42 43 43 43 44 44 43 39 37 34 32 30 28 27 27 28 27 27 27 26
16 19 21 24 24 25 26 21 19 25 27 31 33 35 35 35 36 38 40 41 42 42 42 41 40 39 40 40 40 39 39 39 39 39 36 33 31 29 26 26 26 26 26 26 26 24 22 22 22
Wind_Direction
123 116 113 111 97 81 82 324 168 129 90 80 77 81 91 100 111 126 138 150 154 159 168 177 246 329 332 328 331 334 337 340 347 356 360 1 1 1 358 2 13 13 5 0 357 354 350 341 337
124 128 131 133 64 36 100 250 275 50 70 73 71 71 88 103 120 138 153 164 172 180 189 201 257 311 324 328 329 334 345 353 354 355 353 352 351 356 3 9 13 6 360 358 356 356 355 348 337
141 140 123 130 28 357 19 247 317 340 33 36 33 39 49 98 122 171 198 201 203 202 209 220 243 286 303 312 318 321 334 354 354 351 347 342 341 346 356 3 359 359 1 1 357 354 355 353 345
155 135 122 78 20 331 278 290 320 300 287 290 295 300 308 299 272 243 247 250 249 244 239 243 251 271 286 296 305 306 303 327 336 337 339 334 327 326 334 341 346 351 358 3 1 354 352 353 353
170 147 129 68 345 279 241 249 28 302 244 259 274 273 286 282 276 270 267 268 270 270 266 264 266 275 283 288 291 298 299 305 315 322 327 327 318 310 315 323 330 336 346 355 359 354 344 344 349
185 176 132 86 306 265 251 225 208 261 253 263 277 270 272 271 270 272 270 267 266 269 273 275 273 274 280 287 290 294 300 303 306 311 316 320 314 304 306 316 317 317 321 332 342 344 336 336 340
199 196 165 102 325 290 259 244 227 241 258 284 287 275 259 265 264 272 273 270 267 266 269 271 274 278 281 285 290 294 301 304 307 310 312 312 308 302 300 304 308 308 303 306 316 323 325 324 324
206 197 183 101 317 280 275 255 256 264 273 277 281 280 262 250 256 265 272 271 271 274 272 271 274 278 281 284 288 292 297 301 306 308 308 306 303 300 298 298 300 300 297 293 296 301 304 305 308
202 191 165 126 221 260 251 239 273 285 296 296 291 288 290 274 259 263 271 276 277 279 280 280 283 285 286 289 292 295 299 303 306 306 305 304 302 300 299 297 296 295 293 289 287 288 289 290 294
209 204 197 214 213 237 245 256 273 296 316 302 291 284 290 294 287 280 280 282 283 284 287 292 295 296 301 306 307 307 309 312 314 315 313 310 308 309 307 301 297 295 295 293 289 284 282 280 282
223 221 223 230 231 243 257 264 274 282 275 273 278 282 289 290 287 285 285 287 289 288 290 292 292 294 300 306 311 313 313 314 315 319 318 315 313 312 310 304 300 299 298 296 293 289 282 276 275
233 233 237 242 244 247 255 261 268 272 265 267 275 282 284 286 286 286 286 286 286 285 286 288 290 292 296 300 303 304 306 309 311 313 315 316 315 316 313 308 304 303 303 299 295 291 286 279 275
238 240 245 248 253 257 257 260 267 269 268 270 273 277 280 279 280 284 285 284 284 284 284 284 287 289 290 292 293 294 295 296 297 302 306 307 309 309 308 304 301 303 305 302 297 292 289 288 283
248 247 248 254 260 264 267 267 271 276 272 271 272 273 276 279 278 278 279 280 279 280 282 284 284 286 287 287 287 289 292 291 290 291 294 296 299 299 298 297 296 297 298 298 295 292 289 288 288
253 258 261 264 269 270 269 270 271 265 268 274 276 278 280 281 280 278 278 280 281 281 283 284 285 287 288 288 288 290 292 293 292 292 291 291 291 290 290 290 291 291 292 291 292 294 291 285 283
258 261 264 270 274 272 271 273 269 264 268 274 279 281 283 284 283 282 282 282 282 283 283 284 285 286 286 287 288 289 291 293 294 294 293 291 290 287 286 286 287 287 288 288 289 292 291 287 283
267 272 275 273 267 269 271 273 270 270 271 275 280 282 283 283 283 283 283 283 283 284 284 284 283 283 283 283 284 285 287 289 290 290 289 289 287 285 283 282 283 283 283 284 285 287 287 284 282
245 259 272 244 258 268 271 270 267 274 276 279 283 286 287 286 284 282 282 282 282 282 282 282 283 283 284 284 283 282 283 283 283 284 284 283 283 281 279 278 279 279 279 278 279 282 284 283 282
241 217 211 216 247 263 270 276 269 265 278 282 284 287 288 287 287 286 286 286 285 285 284 284 284 284 284 284 284 283 282 282 281 282 281 281 280 279 278 279 280 280 276 275 275 277 280 280 280
253 247 247 254 256 265 276 282 282 278 279 285 290 290 289 288 288 289 290 290 290 289 289 289 288 287 287 286 286 284 283 282 281 280 279 279 278 277 278 279 281 282 278 275 276 277 278 278 279
264 263 258 246 249 266 280 285 290 290 282 289 293 293 293 291 289 287 287 288 288 287 287 286 286 286 287 286 286 285 284 282 281 280 279 278 278 278 278 278 279 281 279 277 276 277 277 278 279
270 262 263 269 276 280 284 287 289 283 283 288 290 293 295 295 295 293 291 291 290 288 286 285 285 285 285 285 285 284 283 282 280 280 279 278 277 277 277 277 278 278 278 277 276 275 275 278 280
274 277 279 285 289 291 295 293 296 278 277 283 289 292 292 296 295 293 292 292 291 290 288 287 286 285 283 282 282 281 281 281 281 280 278 278 277 276 276 276 276 275 275 275 274 274 274 275 276
289 292 295 301 309 302 285 270 275 272 276 282 288 289 293 299 297 293 291 289 287 286 286 287 287 286 285 284 283 282 282 281 281 281 280 279 278 276 276 274 273 272 272 273 272 272 272 270 267
300 306 306 309 307 305 296 301 298 289 291 295 296 297 299 301 299 297 295 293 289 287 286 286 287 287 288 288 288 287 286 285 283 283 282 281 281 280 278 275 272 270 269 269 269 269 269 266 262
304 307 312 301 278 270 288 306 296 290 295 296 292 292 294 294 295 295 295 293 292 290 289 288 287 288 289 290 290 290 288 286 284 283 283 284 284 283 280 274 270 268 267 265 264 265 265 263 257
313 311 299 301 304 301 298 289 298 293 295 300 303 301 297 296 296 296 295 293 291 288 286 285 285 286 287 288 289 288 287 285 284 284 285 287 287 284 279 271 268 265 262 260 260 261 259 256 253
314 312 309 308 307 301 297 288 282 287 296 302 307 307 306 306 306 303 300 298 295 289 285 283 283 285 287 289 289 288 287 287 287 288 290 291 288 282 275 269 264 259 255 253 253 250 248 247 246
307 315 316 310 306 305 307 306 290 286 290 296 301 303 304 305 304 303 302 300 298 294 288 283 282 284 287 289 288 288 288 289 291 294 295 290 284 278 271 262 255 246 243 243 241 238 238 241 243
291 301 307 307 309 307 308 315 306 294 296 297 301 303 304 305 303 303 305 305 301 295 289 285 282 284 287 288 289 289 290 293 297 298 294 288 277 271 263 253 241 235 236 237 238 239 243 248 252
Height
5925 5926 5927 5929 5930 5928 5928 5930 5929 5927 5928 5928 5927 5927 5927 5927 5928 5929 5927 5926 5927 5928 5928 5929 5929 5929 5929 5929 5928 5927 5927 5926 5925 5924 5923 5921 5920 5919 5918 5917 5916 5915 5914 5912 5911 5910 5909 5908 5907
5927 5929 5929 5930 5928 5927 5928 5931 5931 5931 5931 5930 5929 5929 5929 5929 5928 5928 5927 5927 5927 5927 5928 5929 5929 5929 5929 5929 5928 5927 5927 5926 5925 5924 5923 5922 5921 5919 5918 5918 5917 5916 5914 5912 5911 5910 5909 5908 5907
5929 5929 5930 5930 5931 5929 5929 5931 5932 5932 5932 5932 5932 5932 5932 5931 5930 5929 5929 5928 5928 5928 5928 5929 5929 5929 5929 5928 5928 5927 5926 5926 5925 5925 5924 5923 5921 5920 5919 5918 5917 5916 5914 5913 5912 5910 5909 5908 5907
5929 5930 5931 5931 5936 5934 5933 5933 5932 5932 5933 5933 5933 5933 5932 5931 5931 5931 5930 5930 5930 5929 5929 5929 5929 5928 5928 5927 5927 5927 5927 5926 5926 5925 5924 5923 5922 5921 5920 5919 5918 5916 5914 5913 5912 5911 5910 5908 5907
5928 5930 5931 5933 5936 5935 5934 5933 5933 5932 5932 5932 5932 5932 5931 5931 5931 5931 5930 5930 5930 5930 5929 5929 5928 5927 5927 5926 5926 5926 5926 5926 5926 5925 5924 5923 5922 5921 5920 5919 5918 5916 5915 5913 5912 5910 5909 5908 5907
5929 5929 5930 5932 5935 5935 5933 5933 5932 5932 5931 5931 5931 5930 5930 5930 5930 5930 5930 5930 5930 5930 5929 5928 5927 5926 5926 5926 5926 5926 5925 5925 5924 5924 5923 5922 5922 5921 5920 5919 5917 5916 5915 5913 5912 5910 5909 5908 5907
5928 5930 5929 5932 5936 5934 5933 5932 5932 5931 5931 5930 5929 5928 5929 5928 5928 5929 5929 5929 5929 5929 5928 5927 5926 5926 5925 5925 5925 5925 5924 5923 5923 5922 5922 5921 5921 5920 5919 5918 5916 5915 5914 5913 5911 5910 5909 5907 5906
5927 5930 5931 5933 5938 5933 5931 5931 5930 5930 5929 5929 5929 5927 5927 5926 5927 5927 5927 5928 5928 5928 5927 5927 5926 5925 5924 5924 5923 5923 5922 5921 5921 5921 5920 5919 5919 5918 5917 5916 5915 5914 5913 5912 5910 5909 5908 5907 5905
5925 5929 5929 5932 5935 5930 5930 5930 5930 5929 5928 5928 5927 5926 5925 5925 5925 5925 5925 5925 5926 5926 5926 5926 5925 5924 5923 5922 5922 5921 5920 5919 5919 5918 5918 5917 5916 5916 5915 5914 5913 5912 5911 5910 5909 5908 5907 5906 5904
5924 5926 5926 5928 5928 5928 5929 5929 5929 5929 5928 5925 5925 5924 5924 5925 5924 5924 5923 5923 5923 5924 5924 5924 5924 5923 5922 5921 5920 5919 5918 5917 5917 5916 5915 5914 5914 5913 5913 5911 5910 5909 5908 5907 5907 5906 5905 5904 5903
5921 5922 5923 5924 5925 5926 5927 5928 5928 5928 5928 5922 5922 5922 5923 5924 5924 5923 5922 5922 5921 5921 5921 5921 5920 5920 5919 5919 5917 5916 5915 5914 5913 5913 5912 5911 5911 5910 5910 5909 5907 5906 5905 5904 5903 5902 5901 5900 5900
5917 5919 5920 5922 5923 5924 5925 5926 5927 5926 5924 5920 5921 5920 5922 5922 5921 5920 5920 5920 5919 5917 5917 5917 5916 5915 5914 5913 5913 5911 5910 5909 5908 5908 5907 5906 5906 5905 5905 5904 5903 5902 5901 5900 5898 5897 5896 5895 5895
5912 5915 5917 5919 5919 5921 5922 5923 5924 5923 5918 5917 5919 5918 5919 5919 5918 5917 5916 5915 5915 5913 5912 5912 5912 5910 5909 5907 5907 5905 5904 5903 5902 5902 5901 5900 5900 5899 5899 5899 5897 5896 5895 5894 5893 5892 5892 5891 5890
5907 5908 5912 5914 5915 5915 5916 5918 5920 5918 5911 5912 5914 5914 5914 5914 5913 5911 5910 5910 5909 5908 5906 5906 5906 5904 5903 5902 5900 5899 5898 5896 5895 5895 5895 5894 5893 5893 5892 5892 5891 5890 5889 5888 5886 5885 5885 5885 5885
5902 5905 5907 5909 5909 5909 5909 5912 5915 5912 5905 5905 5906 5909 5910 5908 5906 5904 5903 5903 5902 5901 5899 5898 5898 5897 5896 5894 5893 5892 5890 5888 5887 5887 5886 5886 5886 5885 5883 5883 5883 5882 5881 5880 5879 5878 5878 5878 5878
5899 5901 5903 5905 5904 5902 5904 5905 5906 5903 5900 5897 5898 5901 5903 5901 5899 5897 5895 5895 5894 5893 5893 5891 5890 5889 5887 5885 5884 5883 5882 5881 5880 5878 5877 5877 5876 5876 5874 5873 5873 5873 5873 5873 5872 5871 5871 5870 5870
5894 5896 5899 5901 5899 5896 5897 5898 5898 5895 5893 5891 5891 5893 5894 5894 5892 5890 5888 5887 5886 5885 5884 5882 5881 5879 5878 5877 5876 5874 5873 5872 5870 5868 5867 5867 5867 5866 5865 5864 5863 5862 5862 5863 5863 5863 5862 5862 5861
5892 5896 5900 5902 5895 5889 5889 5892 5893 5888 5886 5885 5884 5883 5883 5883 5883 5881 5879 5878 5876 5875 5873 5872 5870 5869 5868 5867 5866 5864 5863 5862 5861 5860 5858 5857 5856 5856 5855 5854 5853 5852 5851 5851 5852 5852 5852 5852 5851
5886 5888 5890 5893 5891 5883 5882 5885 5887 5884 5879 5878 5877 5875 5874 5873 5871 5870 5868 5867 5866 5865 5863 5862 5861 5859 5858 5856 5855 5854 5853 5852 5851 5849 5848 5847 5845 5844 5843 5842 5841 5840 5839 5839 5839 5839 5839 5839 5839
5882 5884 5886 5887 5885 5880 5878 5878 5879 5878 5874 5871 5871 5869 5867 5865 5864 5862 5860 5858 5856 5855 5854 5853 5851 5849 5848 5846 5845 5843 5842 5841 5839 5838 5837 5836 5834 5833 5831 5830 5829 5827 5826 5827 5827 5827 5826 5826 5825
5878 5880 5879 5878 5875 5873 5873 5872 5872 5871 5867 5864 5864 5862 5859 5857 5856 5855 5852 5850 5847 5846 5844 5843 5841 5839 5837 5835 5833 5832 5830 5829 5828 5826 5825 5824 5823 5821 5820 5819 5818 5816 5815 5815 5816 5816 5814 5814 5813
5872 5872 5869 5869 5870 5870 5869 5865 5866 5865 5860 5858 5856 5855 5853 5850 5847 5845 5843 5840 5838 5836 5834 5832 5831 5830 5827 5825 5823 5821 5820 5819 5817 5815 5814 5813 5812 5810 5809 5808 5807 5806 5804 5804 5804 5804 5804 5803 5801
5866 5865 5864 5864 5863 5863 5863 5860 5861 5857 5853 5850 5848 5848 5846 5845 5842 5839 5836 5833 5830 5827 5824 5823 5822 5821 5819 5817 5814 5813 5811 5809 5807 5805 5803 5801 5800 5798 5797 5796 5796 5795 5794 5793 5792 5792 5793 5792 5791
5861 5860 5859 5859 5859 5859 5858 5856 5855 5847 5847 5846 5844 5841 5839 5838 5836 5832 5830 5827 5823 5820 5818 5816 5814 5812 5810 5808 5806 5803 5801 5799 5796 5793 5791 5789 5787 5786 5785 5783 5783 5782 5782 5782 5782 5782 5782 5782 5782
5858 5858 5857 5858 5859 5856 5852 5851 5851 5845 5845 5843 5839 5835 5832 5831 5829 5825 5822 5819 5816 5813 5811 5808 5806 5803 5800 5798 5795 5793 5790 5787 5785 5782 5779 5776 5774 5772 5771 5769 5769 5769 5770 5770 5771 5771 5771 5772 5773
5855 5855 5855 5854 5854 5854 5853 5853 5851 5844 5842 5840 5837 5833 5829 5825 5821 5817 5814 5811 5807 5804 5802 5800 5797 5795 5792 5789 5785 5782 5778 5776 5773 5770 5767 5764 5761 5758 5756 5755 5754 5755 5757 5758 5759 5760 5761 5762 5763
5853 5853 5853 5851 5850 5850 5851 5850 5845 5836 5835 5833 5830 5827 5822 5818 5813 5809 5804 5801 5798 5795 5792 5790 5787 5785 5782 5779 5775 5771 5767 5764 5761 5758 5754 5750 5746 5743 5742 5742 5742 5743 5745 5746 5748 5750 5751 5752 5754
5851 5850 5850 5848 5846 5845 5845 5845 5843 5834 5829 5826 5822 5818 5814 5809 5805 5799 5794 5790 5786 5783 5781 5779 5777 5774 5772 5768 5764 5760 5757 5753 5749 5745 5741 5735 5732 5729 5728 5729 5731 5732 5734 5737 5740 5742 5743 5745 5746
5848 5846 5844 5843 5841 5839 5837 5839 5837 5831 5826 5821 5816 5811 5806 5802 5797 5792 5786 5781 5777 5772 5769 5767 5766 5764 5761 5757 5754 5750 5746 5743 5738 5733 5727 5722 5719 5717 5718 5719 5721 5724 5727 5730 5733 5736 5737 5738 5739
5845 5844 5842 5839 5836 5834 5831 5833 5829 5823 5819 5814 5809 5804 5798 5794 5789 5783 5778 5772 5767 5763 5759 5757 5756 5754 5751 5747 5744 5740 5737 5733 5728 5722 5716 5712 5710 5709 5709 5711 5714 5717 5720 5724 5727 5729 5730 5732 5733